Location: Malcolm X Square
(37.7810°N, 122.4297°W)
Time: 23:35:44
(UTC+00:00)

CRYOSAT 2 - Pass Details

Date: 13 April 2024
Orbit: 716 x 722 km, 92.0° (Epoch: 21 May)

Event Time Altitude Azimuth Distance (km) Brightness Sun altitude
Rises 12:35:25 0° 1° (N) 3,134 8.0 -12.3°
Reaches altitude 10° 12:37:44 10° 358° (N) 2,208 7.2 -11.9°
Maximum altitude 12:42:33 64° 278° (W) 793 4.4 -11.0°
Drops below altitude 10° 12:47:20 10° 197° (SSW) 2,191 6.5 -10.1°
Sets 12:49:37 0° 194° (SSW) 3,106 7.3 -9.7°
